Powrót do katalogu

EWS-G1

AktywnyPogodaGEO
NORAD 29155·PAYLOAD·🇺🇸 United States

Wystrzelony May 24, 2006 z Cape Canaveral Space Force Station

Loading…

TLE

ŚwieżeSource: Space-Track

Epoka: Sep 14, 2026, 22:00 UTC

1 29155U 06018A   26257.91732073 -.00000100  00000-0  00000-0 0  9993
2 29155   4.7602  75.2854 0059444 279.9155 258.0634  0.98786442 44136

Śledź EWS-G1 w czasie rzeczywistym z AllMySat

Download on the App Store